GW4073 Weather Reports


Display with metric or nautical units.
time (UTC)temp
F
wind
direction
speed
MPH
gust
MPH
rain 1hr
in
rain 24hr
in
rain mn
in
humidity
%
barometer
mb
20260503172943 72 282 3.0 9.0 0.00 0.05 0.05 23 1013.2
20260503172440 71 316 2.0 4.0 0.00 0.05 0.05 23 1013.2
20260503171937 71 229 2.0 6.0 0.00 0.05 0.05 22 1013.1
20260503171433 71 174 2.0 9.0 0.00 0.05 0.05 21 1013.4
20260503170931 71 88 3.0 7.0 0.00 0.05 0.05 21 1013.5
20260503170427 70 94 0.0 10.0 0.00 0.05 0.05 21 1013.4
20260503150820 60 54 6.0 7.0 0.00 0.05 0.05 34 1013.0
20260503150315 59 78 1.0 4.0 0.00 0.05 0.05 37 1013.0
20260503140240 52 47 9.0 12.0 0.00 0.05 0.05 38 1013.2
20260503131209 48 55 6.0 13.0 0.00 0.05 0.05 42 1013.0
20260503130707 48 58 6.0 11.0 0.00 0.05 0.05 42 1013.0
20260503130204 48 54 6.0 15.0 0.00 0.05 0.05 42 1012.9
20260503120130 46 33 9.0 11.0 0.00 0.00 0.00 44 1012.9
20260503110551 46 7 5.0 12.0 0.00 0.00 0.00 43 1013.1
20260503090420 50 68 7.0 11.0 0.00 0.00 0.00 36 1013.4
20260503081347 50 40 6.0 11.0 0.00 0.00 0.00 36 1013.7
20260503080844 50 15 3.0 10.0 0.00 0.00 0.00 35 1013.8
20260503080341 51 48 5.0 11.0 0.00 0.00 0.00 34 1013.7
20260503072817 51 58 6.0 9.0 0.00 0.00 0.00 33 1014.2
20260503072314 51 43 7.0 12.0 0.00 0.00 0.00 33 1014.2
20260503071810 51 344 4.0 9.0 0.00 0.00 0.00 33 1014.2
20260503071308 51 39 8.0 8.0 0.00 0.00 0.00 33 1014.2
20260503070803 51 26 4.0 6.0 0.00 0.00 0.00 33 1014.1
20260503070301 52 47 6.0 7.0 0.00 0.00 0.00 33 1013.8
20260503060215 52 88 4.0 7.0 0.00 0.00 0.00 31 1013.9
20260503054702 53 42 6.0 8.0 0.00 0.00 0.00 31 1013.8
20260503054159 54 49 3.0 10.0 0.00 0.00 0.00 30 1013.9
20260503053657 54 32 5.0 9.0 0.00 0.00 0.00 30 1013.8
20260503053155 55 29 5.0 11.0 0.00 0.00 0.00 29 1013.8
20260503052652 55 32 7.0 11.0 0.00 0.00 0.00 29 1013.7
20260503052148 55 38 6.0 13.0 0.00 0.00 0.00 29 1013.6
20260503051643 55 32 7.0 9.0 0.00 0.00 0.00 29 1013.7
20260503051141 56 35 8.0 13.0 0.00 0.00 0.00 28 1013.6
20260503050638 56 44 7.0 13.0 0.00 0.00 0.00 28 1013.9
20260503050134 56 43 3.0 11.0 0.00 0.00 0.00 28 1013.7
20260503045632 56 41 7.0 11.0 0.00 0.00 0.00 28 1013.6
20260503045129 56 68 9.0 11.0 0.00 0.00 0.00 28 1013.6
20260503044625 57 19 5.0 9.0 0.00 0.00 0.00 28 1013.6
20260503044123 57 40 3.0 11.0 0.00 0.00 0.00 28 1013.7
20260503043620 56 40 6.0 12.0 0.00 0.00 0.00 28 1013.5
20260503043116 57 52 6.0 11.0 0.00 0.00 0.00 28 1013.6
20260503042613 57 22 11.0 11.0 0.00 0.00 0.00 28 1013.4
20260503042109 57 40 6.0 15.0 0.00 0.00 0.00 27 1013.6
20260503041606 57 54 9.0 12.0 0.00 0.00 0.00 28 1013.6
20260503041104 57 45 8.0 14.0 0.00 0.00 0.00 28 1013.4
20260503040601 56 45 5.0 11.0 0.00 0.00 0.00 28 1013.5
20260503040058 56 54 5.0 10.0 0.00 0.00 0.00 29 1013.2
20260503035554 57 43 11.0 14.0 0.00 0.00 0.00 28 1013.4
20260503035052 56 58 9.0 14.0 0.00 0.00 0.00 30 1013.4
20260503034549 57 88 9.0 10.0 0.00 0.00 0.00 29 1013.4
20260503034046 57 44 8.0 12.0 0.00 0.00 0.00 29 1013.2
20260503033543 58 52 4.0 16.0 0.00 0.00 0.00 27 1013.0
20260503033041 60 51 4.0 11.0 0.00 0.00 0.00 25 1013.2
20260503032539 62 68 7.0 12.0 0.00 0.00 0.00 23 1013.1
20260503032037 62 80 6.0 12.0 0.00 0.00 0.00 22 1013.1
20260503031535 62 54 9.0 10.0 0.00 0.00 0.00 22 1013.0
20260503031032 63 64 8.0 13.0 0.00 0.00 0.00 21 1012.9
20260503030528 64 94 7.0 13.0 0.00 0.00 0.00 21 1012.9
20260503030025 64 44 8.0 14.0 0.00 0.00 0.00 21 1013.0
20260503025521 64 46 11.0 13.0 0.00 0.00 0.00 20 1013.0
20260503025020 65 84 8.0 11.0 0.00 0.00 0.00 20 1012.9
20260503024515 65 70 5.0 12.0 0.00 0.00 0.00 20 1013.0
20260503024013 65 67 7.0 12.0 0.00 0.00 0.00 20 1012.7
20260503023509 65 60 8.0 8.0 0.00 0.00 0.00 20 1012.8
20260503023007 65 98 4.0 8.0 0.00 0.00 0.00 20 1012.9
20260503022503 66 60 5.0 9.0 0.00 0.00 0.00 20 1012.7
20260503021957 66 108 6.0 11.0 0.00 0.00 0.00 19 1012.8
20260503021454 66 81 3.0 13.0 0.00 0.00 0.00 19 1012.5
20260503020952 66 89 4.0 12.0 0.00 0.00 0.00 19 1012.7
20260503020449 66 72 7.0 9.0 0.00 0.00 0.00 19 1012.8
20260503015945 66 34 3.0 4.0 0.00 0.00 0.00 19 1012.8
20260503015442 67 73 2.0 4.0 0.00 0.00 0.00 19 1012.7
20260503014939 67 107 2.0 4.0 0.00 0.00 0.00 19 1012.8
20260503014436 67 101 4.0 10.0 0.00 0.00 0.00 19 1012.8
20260503013934 68 196 1.0 4.0 0.00 0.00 0.00 18 1012.7
20260503013430 68 84 3.0 5.0 0.00 0.00 0.00 19 1012.7
20260503012927 68 38 5.0 5.0 0.00 0.00 0.00 18 1012.9
20260503012425 68 46 9.0 13.0 0.00 0.00 0.00 18 1012.5
20260503011920 68 45 6.0 9.0 0.00 0.00 0.00 18 1012.2
20260503011412 68 62 6.0 9.0 0.00 0.00 0.00 18 1012.5
20260503010909 68 47 5.0 8.0 0.00 0.00 0.00 18 1012.4
20260503010406 68 25 4.0 12.0 0.00 0.00 0.00 18 1012.7
20260503005903 69 10 2.0 10.0 0.00 0.00 0.00 18 1012.5
20260503005401 69 57 5.0 13.0 0.00 0.00 0.00 17 1012.7
20260503004857 69 42 6.0 9.0 0.00 0.00 0.00 18 1012.7
20260503004354 69 56 5.0 7.0 0.00 0.00 0.00 18 1012.5
20260503003852 70 106 2.0 3.0 0.00 0.00 0.00 17 1012.7
20260503003348 71 272 2.0 6.0 0.00 0.00 0.00 17 1012.5
20260503002845 70 58 2.0 8.0 0.00 0.00 0.00 17 1012.7
20260503002343 70 9 0.0 7.0 0.00 0.00 0.00 16 1012.5
20260503001839 70 32 3.0 8.0 0.00 0.00 0.00 17 1012.7
20260503001335 73 15 3.0 3.0 0.00 0.00 0.00 16 1012.8
20260503000832 73 245 2.0 4.0 0.00 0.00 0.00 17 1012.8
20260503000325 71 217 2.0 5.0 0.00 0.00 0.00 16 1012.9
20260502235820 72 50 6.0 10.0 0.00 0.00 0.00 16 1012.8
20260502235317 72 293 2.0 4.0 0.00 0.00 0.00 17 1013.0
20260502234814 71 39 9.0 13.0 0.00 0.00 0.00 16 1012.8
20260502234306 71 16 4.0 7.0 0.00 0.00 0.00 15 1013.0
20260502233802 71 127 6.0 7.0 0.00 0.00 0.00 16 1013.0
20260502233259 71 91 5.0 9.0 0.00 0.00 0.00 15 1013.1
20260502232755 71 127 0.0 3.0 0.00 0.00 0.00 17 1013.1
20260502232252 71 300 3.0 3.0 0.00 0.00 0.00 18 1013.0
20260502231749 70 56 5.0 11.0 0.00 0.00 0.00 17 1013.1
20260502231246 71 192 2.0 12.0 0.00 0.00 0.00 17 1013.4
20260502230745 71 65 4.0 9.0 0.00 0.00 0.00 17 1013.1
20260502230242 70 64 6.0 13.0 0.00 0.00 0.00 17 1013.2
20260502225739 71 36 6.0 9.0 0.00 0.00 0.00 16 1013.2
20260502225236 71 53 5.0 10.0 0.00 0.00 0.00 17 1013.0
20260502224732 71 44 6.0 14.0 0.00 0.00 0.00 17 1013.1
20260502224229 71 139 2.0 8.0 0.00 0.00 0.00 17 1013.2
20260502223726 71 2 2.0 10.0 0.00 0.00 0.00 17 1013.4
20260502223224 71 13 4.0 11.0 0.00 0.00 0.00 17 1013.6
20260502222721 72 73 0.0 6.0 0.00 0.00 0.00 17 1013.6
20260502222217 71 117 2.0 9.0 0.00 0.00 0.00 16 1013.9
20260502221713 74 199 1.0 5.0 0.00 0.00 0.00 16 1013.9
20260502221205 71 192 6.0 9.0 0.00 0.00 0.00 16 1014.1
20260502220701 71 125 7.0 10.0 0.00 0.00 0.00 17 1014.3
20260502220158 73 250 2.0 7.0 0.00 0.00 0.00 15 1014.3
20260502215655 71 161 0.0 5.0 0.00 0.00 0.00 17 1014.2
20260502215151 72 304 4.0 4.0 0.00 0.00 0.00 15 1014.4
20260502214649 71 214 6.0 10.0 0.00 0.00 0.00 16 1014.7
20260502214146 73 214 2.0 8.0 0.00 0.00 0.00 16 1014.7
20260502213643 70 190 4.0 14.0 0.00 0.00 0.00 17 1014.7
20260502213140 71 103 6.0 12.0 0.00 0.00 0.00 17 1015.0
20260502212638 71 112 5.0 11.0 0.00 0.00 0.00 18 1015.0
20260502212136 71 279 5.0 7.0 0.00 0.00 0.00 19 1014.9
20260502211631 74 188 1.0 6.0 0.00 0.00 0.00 18 1015.2
20260502211124 73 258 2.0 8.0 0.00 0.00 0.00 20 1015.1
20260502210621 72 209 2.0 6.0 0.00 0.00 0.00 20 1015.1
20260502210118 70 61 6.0 12.0 0.00 0.00 0.00 18 1015.2
20260502205614 73 285 3.0 3.0 0.00 0.00 0.00 18 1015.5
20260502205111 70 230 4.0 12.0 0.00 0.00 0.00 17 1015.8
20260502204608 70 67 11.0 17.0 0.00 0.00 0.00 18 1015.4
20260502204106 69 57 9.0 13.0 0.00 0.00 0.00 18 1015.7
20260502203603 70 0 4.0 9.0 0.00 0.00 0.00 18 1015.6
20260502203100 72 73 3.0 6.0 0.00 0.00 0.00 18 1015.6
20260502202555 72 203 2.0 9.0 0.00 0.00 0.00 17 1015.7
20260502202054 69 242 2.0 10.0 0.00 0.00 0.00 18 1015.6
20260502201549 71 100 4.0 6.0 0.00 0.00 0.00 17 1015.6
20260502201041 74 284 1.0 3.0 0.00 0.00 0.00 19 1015.9
20260502200537 71 303 3.0 6.0 0.00 0.00 0.00 18 1015.9
20260502200035 71 284 4.0 6.0 0.00 0.00 0.00 21 1016.3
20260502195532 71 206 4.0 13.0 0.00 0.00 0.00 18 1016.3
20260502195028 71 214 8.0 11.0 0.00 0.00 0.00 16 1016.2
20260502194525 70 348 2.0 3.0 0.00 0.00 0.00 17 1016.1
20260502194021 68 54 4.0 9.0 0.00 0.00 0.00 18 1016.3
20260502193518 71 155 6.0 11.0 0.00 0.00 0.00 17 1016.4
20260502193015 72 69 4.0 6.0 0.00 0.00 0.00 17 1016.4
20260502192510 70 241 3.0 4.0 0.00 0.00 0.00 18 1016.2
20260502192008 68 85 2.0 6.0 0.00 0.00 0.00 17 1016.5
20260502191505 70 100 5.0 8.0 0.00 0.00 0.00 19 1016.4
20260502191003 70 82 4.0 5.0 0.00 0.00 0.00 18 1016.3
20260502190500 67 329 0.0 15.0 0.00 0.00 0.00 18 1016.5
20260502185956 67 50 8.0 12.0 0.00 0.00 0.00 18 1016.8
20260502185452 68 124 8.0 13.0 0.00 0.00 0.00 19 1016.4
20260502184949 69 255 0.0 8.0 0.00 0.00 0.00 18 1016.6
20260502184444 69 187 2.0 6.0 0.00 0.00 0.00 18 1016.6
20260502183941 68 45 7.0 7.0 0.00 0.00 0.00 20 1016.9
20260502183437 68 101 5.0 13.0 0.00 0.00 0.00 19 1016.9
20260502182932 66 180 2.0 11.0 0.00 0.00 0.00 19 1016.8
20260502182428 66 45 13.0 17.0 0.00 0.00 0.00 18 1017.0
20260502181924 67 88 6.0 14.0 0.00 0.00 0.00 19 1017.0
20260502181423 68 106 10.0 16.0 0.00 0.00 0.00 18 1017.1
20260502180921 68 105 6.0 14.0 0.00 0.00 0.00 19 1017.0
20260502180418 68 146 4.0 9.0 0.00 0.00 0.00 19 1017.1